カタログに戻る

STARLINK-33678

運用中通信VLEO
NORAD 63509·PAYLOAD·🇺🇸 United States

打ち上げ Apr 7, 2025 から Vandenberg Space Force Base

Loading…

次のパス (今後24時間)

TLE

最新Source: CelesTrak SupGP

元期: Sep 15, 2026, 03:06 UTC

1 63509C 25071S   26258.12965278  .00066246  00000+0  21295-2 0  2583
2 63509  53.1581 338.4780 0001163  95.4929 307.6246 15.31680673    19

AllMySatでSTARLINK-33678をリアルタイム追跡

Download on the App Store